RH
101 101 101 102 101 101 102 100 97 92 88 86 88 88 85 86 95 99 100 105 102 96 94 89 88 98 103 102 98 84 72 65 58 55 54 53 52 51 50 50 52 54 55 55 54 52 50 49 49 48 46 42 39 38 39 42 49 57 59 54 46 43 44 44 44 46 47 46 46 46 47 47 47 47 46 46 45 44 43 43 42 42 43 44 45 46
100 100 100 100 100 101 100 96 92 90 91 94 97 94 88 87 95 101 104 107 106 98 96 93 93 101 105 103 100 85 72 65 58 55 53 52 50 49 49 51 54 57 56 54 53 52 52 51 49 45 41 39 38 41 47 55 61 59 52 44 42 44 47 50 50 49 47 46 47 47 47 47 47 46 46 45 44 44 43 42 42 42 43 45 46 47
99 100 100 101 102 100 94 90 92 96 100 102 97 90 87 93 101 106 107 110 108 100 97 96 96 104 106 104 102 86 72 65 57 54 51 50 50 48 51 54 57 58 56 54 52 51 51 48 45 40 38 39 45 55 61 62 56 48 44 45 48 50 51 51 50 48 47 47 48 47 46 46 45 45 45 45 45 46 47 48 48 49 50 51 51 53
101 102 103 103 99 93 90 94 100 103 102 98 91 88 92 101 107 106 106 110 109 103 102 99 97 105 106 105 105 91 77 68 56 52 50 49 50 50 53 55 56 55 52 51 48 46 45 41 39 39 44 54 61 64 59 52 48 48 51 52 52 52 50 50 49 48 48 47 47 47 47 46 46 47 47 48 49 49 51 52 53 54 55 56 56 57
102 103 103 100 94 92 98 104 105 101 95 91 93 99 100 102 104 105 107 110 108 103 105 102 96 101 106 105 101 87 74 65 56 53 52 50 51 53 54 53 50 49 47 45 43 41 40 40 45 52 60 64 61 55 52 52 54 56 56 54 53 52 51 50 50 50 49 48 48 48 49 49 49 50 50 51 52 54 55 55 55 56 56 58 58 59
102 102 101 99 97 100 105 107 101 93 90 94 102 106 101 102 105 106 110 110 105 99 99 102 97 94 104 105 90 72 61 55 51 52 51 51 51 50 48 46 45 44 42 41 41 42 46 51 58 61 60 56 53 53 55 57 57 56 56 54 54 53 52 52 51 51 50 50 49 50 51 52 53 54 55 56 57 58 58 58 59 58 58 60 61 61
103 102 100 100 101 104 107 104 96 92 94 99 106 107 102 104 105 106 110 105 98 94 92 99 93 75 78 82 66 52 48 45 45 48 49 47 45 44 43 42 41 40 41 45 48 52 57 60 59 55 51 50 53 55 55 55 55 55 54 53 53 52 52 51 51 51 51 51 52 54 55 56 57 57 57 57 58 60 61 61 62 62 62 63 64 65
104 103 102 101 103 106 105 100 96 97 98 98 103 106 103 105 105 105 105 94 87 89 88 93 87 61 50 53 48 45 43 41 43 45 44 42 40 41 40 39 40 45 51 55 56 58 58 56 53 52 52 53 53 54 53 53 53 53 52 52 52 51 51 51 52 53 55 56 57 57 58 58 58 58 60 60 62 65 66 66 66 66 65 65 65 66
102 102 103 104 106 106 101 97 99 100 98 98 101 104 104 106 106 101 94 87 83 79 73 70 64 48 42 44 45 45 42 41 43 42 41 40 38 38 39 45 52 56 56 54 53 54 54 53 53 54 54 54 54 54 53 53 52 53 53 53 53 53 54 54 57 58 59 60 59 59 60 62 65 67 69 71 71 72 72 71 70 67 64 61 59 59
105 107 108 108 106 102 98 100 104 102 99 101 102 104 105 103 99 91 84 81 73 60 51 46 43 40 42 44 42 39 39 41 41 40 40 38 38 42 50 56 56 52 49 49 52 54 53 53 53 54 55 55 55 54 54 54 54 55 55 56 56 55 56 57 59 61 61 61 62 65 68 71 76 78 79 80 79 76 73 70 65 60 56 52 49 48
109 109 107 106 101 98 102 106 107 104 102 102 102 103 101 96 89 80 74 66 52 42 38 38 39 39 41 44 43 40 40 41 39 39 39 41 46 52 54 51 46 44 47 50 51 51 51 52 53 53 53 53 52 52 53 54 55 56 56 55 55 55 57 59 60 61 63 65 69 73 77 80 83 84 83 82 78 72 65 59 54 49 45 41 39 37
105 106 105 103 100 101 105 106 105 104 103 101 100 97 91 83 73 61 56 50 41 38 36 36 39 41 44 45 44 43 43 42 42 41 42 46 50 50 47 44 44 46 48 49 49 49 49 50 49 48 47 47 48 50 51 53 54 55 54 54 56 59 60 61 62 64 68 72 77 81 85 87 87 85 80 74 67 60 52 47 43 39 35 32 29 27
106 106 105 103 101 102 104 104 103 101 100 96 92 86 75 63 49 39 39 39 37 37 36 37 41 44 47 46 43 46 48 46 44 41 43 47 48 47 45 45 46 46 47 47 47 46 46 46 45 46 47 48 51 53 54 55 54 54 55 57 59 62 62 63 66 70 75 79 83 86 86 85 81 74 66 58 51 46 40 37 33 29 26 22 19 18
107 105 103 101 101 101 101 102 99 95 94 92 85 72 57 44 35 32 35 35 35 36 35 39 43 46 50 50 50 53 49 43 39 40 44 46 46 46 46 45 46 47 47 45 44 44 44 46 47 50 52 54 56 56 57 56 56 55 56 58 60 61 63 65 69 74 79 82 83 82 78 72 64 55 47 41 36 32 29 26 23 20 18 15 14 13
104 102 101 101 100 101 102 102 97 88 82 78 69 54 42 37 33 32 33 34 36 37 38 43 49 54 54 49 46 44 38 35 37 41 44 44 45 46 46 46 48 47 46 44 44 46 48 51 53 54 55 56 56 56 56 55 54 55 56 58 59 61 64 68 73 78 81 82 80 75 65 55 45 37 32 28 24 22 20 17 16 15 14 13 12 12
104 103 102 102 102 102 102 100 92 76 60 51 45 40 37 36 35 34 34 36 37 36 35 40 46 50 45 37 36 36 33 36 41 43 45 46 48 48 47 48 49 47 45 46 49 52 55 57 58 58 58 58 57 56 54 54 55 58 59 61 63 67 71 76 80 84 85 82 75 63 50 39 31 26 23 20 18 17 16 15 14 13 13 13 12 12
104 104 104 103 105 105 98 88 73 54 41 37 36 36 36 36 35 35 33 34 34 31 30 33 38 43 41 38 40 39 38 42 45 46 48 51 52 50 50 51 50 48 49 52 55 58 60 62 63 63 62 61 59 58 58 61 63 65 66 69 72 75 79 82 86 86 82 73 61 48 36 28 24 21 19 17 16 15 15 15 15 15 14 13 13 12
88 89 95 96 91 82 71 59 47 39 34 34 34 35 34 33 32 31 31 32 32 31 33 35 39 45 49 47 44 43 45 48 49 50 54 56 54 51 53 54 53 55 57 58 60 61 63 64 64 64 63 63 63 64 66 67 67 69 71 74 77 80 83 85 85 82 72 58 44 33 25 21 19 18 17 17 17 17 17 17 16 15 15 13 12 11
71 68 75 78 65 49 41 37 34 35 35 34 35 35 32 30 30 32 35 37 35 34 38 40 43 50 58 57 50 48 53 54 53 58 63 62 59 58 61 62 63 65 66 65 65 65 66 65 64 64 65 66 67 67 67 67 68 70 72 75 79 83 86 85 80 71 57 42 30 24 20 19 18 18 18 18 18 18 17 16 15 14 13 12 10 10
56 47 47 51 45 35 34 34 33 34 36 37 37 34 33 35 37 37 38 39 38 39 43 44 47 55 62 60 56 57 59 57 59 66 70 67 66 68 70 70 71 72 70 68 66 65 65 65 64 65 66 67 66 65 65 66 68 70 73 77 81 83 83 78 69 55 40 29 23 21 20 20 20 19 19 19 18 17 16 14 13 12 11 10 9 9
38 34 31 33 34 33 33 33 34 35 35 37 37 37 39 43 43 41 43 48 48 48 49 44 47 59 62 56 58 61 58 56 60 67 68 69 72 74 74 73 72 69 65 62 60 60 60 61 62 64 64 64 63 63 65 66 68 70 74 78 79 77 71 62 51 38 28 23 21 21 21 21 20 19 18 18 16 15 13 12 11 10 9 9 9 9
30 31 31 31 32 33 34 35 36 36 35 37 38 40 44 47 48 46 48 53 55 57 58 50 49 61 62 58 61 61 55 55 62 66 69 73 78 78 75 71 65 60 57 56 56 56 56 57 60 62 63 62 63 64 66 67 69 72 75 76 72 64 55 43 34 27 23 22 22 23 22 21 19 17 16 15 14 12 11 10 10 10 9 9 9 8
28 29 31 32 33 35 36 34 35 36 39 42 42 44 48 52 53 51 51 52 53 58 60 54 54 60 60 60 63 59 54 57 64 70 74 79 81 78 72 65 59 57 57 57 56 56 57 59 61 62 62 62 64 66 68 69 71 74 75 71 61 50 40 31 25 23 22 23 23 22 21 19 17 15 13 12 11 10 9 9 9 10 9 9 8 8
29 31 32 34 38 40 37 32 34 39 43 44 45 49 54 56 56 56 56 54 52 53 55 54 56 57 55 57 57 53 51 55 63 72 77 79 77 73 67 61 59 59 58 58 60 61 63 65 65 65 65 66 68 69 71 74 76 76 72 62 49 37 30 24 23 23 23 23 22 20 18 16 14 13 11 10 10 8 8 8 9 9 9 8 7 7
32 34 35 37 40 40 37 37 41 47 50 52 54 56 58 59 60 60 60 57 53 54 56 57 59 59 57 56 54 51 51 54 61 70 75 76 73 69 66 63 61 61 62 65 70 73 73 71 70 69 69 69 70 72 75 76 75 69 59 46 34 26 23 22 23 23 22 21 19 17 16 14 13 12 11 10 9 8 8 8 8 8 8 7 6 6
37 39 38 36 35 34 36 41 47 53 58 61 62 63 63 63 63 63 62 59 55 55 59 61 61 61 60 57 53 52 54 60 70 78 81 79 76 73 70 66 64 65 69 74 77 77 73 70 69 69 68 68 69 70 71 69 61 50 38 28 23 21 21 22 22 22 21 19 17 15 14 13 13 12 11 10 10 9 8 8 8 8 7 6 6 5
43 43 38 34 33 33 34 38 45 51 55 57 59 61 62 62 63 64 64 63 61 61 63 62 59 58 58 56 53 53 57 66 77 83 81 78 77 76 73 68 68 70 72 73 71 67 64 63 64 64 64 64 64 63 59 51 40 30 24 21 21 22 23 23 21 20 18 16 14 14 13 12 12 12 11 10 10 9 9 8 8 8 7 6 5 5
45 43 38 37 38 37 37 41 45 48 51 53 55 57 58 61 64 66 68 68 66 64 63 62 59 57 55 53 52 53 60 70 76 77 74 73 75 76 73 71 71 71 69 65 61 59 59 60 60 61 62 61 58 52 43 33 26 21 21 22 22 23 22 20 17 16 14 13 13 12 12 12 12 12 11 10 10 9 9 8 7 7 7 6 5 5
40 40 41 45 47 43 42 46 47 48 50 52 54 56 59 63 66 70 72 71 69 65 63 61 59 56 52 50 52 59 68 73 73 72 73 76 77 75 71 70 69 66 63 60 59 60 60 61 61 61 59 53 45 35 27 22 20 20 21 21 20 19 17 15 14 12 12 12 12 12 13 12 12 12 12 11 10 9 8 7 7 7 7 6 5 5
39 43 45 50 56 53 49 49 49 50 51 52 57 63 66 70 73 74 76 74 69 65 61 58 56 53 50 51 59 70 76 75 73 75 79 81 80 76 71 68 66 63 61 61 61 62 62 62 61 56 47 37 28 22 19 18 19 19 19 18 16 15 14 13 12 12 12 12 13 13 12 12 11 11 10 10 9 8 7 7 7 7 6 6 6 6
41 45 47 51 60 62 57 54 53 54 59 65 71 75 76 76 75 75 76 73 67 62 59 58 55 52 54 62 73 82 82 79 78 79 82 82 80 76 69 64 61 61 62 61 61 61 61 58 52 41 30 22 18 18 18 18 17 17 15 14 13 13 13 12 12 13 13 13 12 12 12 11 11 10 9 9 8 7 7 7 7 7 6 6 6 6
42 46 49 52 59 64 64 63 63 66 74 81 84 83 80 77 74 74 74 70 65 60 58 55 53 56 66 79 87 90 87 84 82 80 80 79 75 69 64 61 60 60 59 58 57 56 51 43 34 25 19 18 19 19 19 18 16 15 14 13 13 12 13 13 13 13 13 12 11 11 11 10 10 9 9 8 7 6 6 7 7 7 6 6 6 6
45 48 52 54 59 66 70 73 75 75 78 81 82 80 77 74 73 73 71 69 65 59 55 55 58 67 78 85 86 85 83 81 79 75 72 68 63 59 57 56 56 55 54 52 48 41 32 25 21 19 18 18 18 17 16 15 14 13 13 13 13 13 13 13 12 12 11 11 10 9 9 9 9 8 7 7 6 6 6 6 7 7 6 6 6 6
50 53 57 58 62 68 73 77 79 78 79 78 76 75 74 73 73 71 69 66 59 54 58 67 75 83 88 86 82 77 73 71 68 64 61 58 55 53 52 52 52 52 48 41 32 24 20 18 18 17 16 14 13 12 12 11 11 11 11 12 12 11 11 11 11 10 9 9 9 8 8 8 7 7 7 6 6 6 7 7 7 7 6 6 6 5
57 59 61 62 63 66 71 76 77 76 78 78 76 74 74 71 68 66 63 58 54 60 76 89 94 95 91 84 76 70 63 59 58 57 56 54 53 52 52 52 49 43 34 25 20 17 17 16 15 13 12 11 10 10 10 10 10 10 10 10 10 9 9 9 9 8 8 8 7 7 7 7 7 6 6 6 6 6 7 6 6 7 6 6 5 5
59 60 60 64 68 71 74 76 75 72 74 77 75 73 71 69 65 61 59 65 76 91 100 99 93 86 77 69 64 58 53 50 51 54 55 54 54 55 53 46 36 26 20 16 15 14 13 12 11 10 9 9 9 9 9 9 9 8 8 8 8 7 7 7 7 7 6 7 6 6 6 6 6 6 6 6 7 6 6 6 6 7 6 5 5 4
62 66 69 73 76 77 76 76 75 73 75 77 75 72 69 66 60 55 59 75 92 99 93 82 74 67 60 55 52 50 47 46 48 52 56 56 55 50 41 30 21 17 15 14 12 11 11 10 9 8 8 8 8 8 8 7 7 7 7 7 6 6 6 6 6 6 6 6 6 6 6 6 6 6 6 6 6 7 7 6 6 6 6 5 4 4
75 78 80 80 78 77 76 76 77 77 78 77 74 68 63 59 58 63 73 84 86 81 73 64 59 54 50 47 47 47 46 45 46 49 50 46 40 31 23 18 16 15 14 12 11 10 10 9 9 9 9 8 8 8 7 6 6 6 6 6 6 6 6 5 5 5 5 6 6 6 6 6 5 5 6 6 6 7 7 6 6 6 5 5 4 4
82 82 82 83 82 82 82 82 80 79 76 72 65 58 59 66 73 78 81 80 73 67 62 57 53 50 47 45 44 44 44 42 38 34 30 25 20 17 15 15 14 13 13 12 11 10 10 10 10 10 9 8 7 7 6 6 6 6 5 6 5 5 6 6 6 6 6 6 6 6 6 5 5 5 5 6 6 6 6 6 6 5 5 4 4 4
87 87 89 90 90 89 87 85 80 74 68 64 60 62 72 82 83 78 73 68 62 60 58 55 52 48 44 41 40 40 38 31 23 17 15 14 13 13 13 13 12 11 11 11 11 11 11 11 10 9 8 7 6 6 6 6 5 6 6 5 5 6 6 6 6 6 6 6 6 6 5 5 5 5 5 6 6 6 5 5 5 5 4 4 4 4
92 92 93 93 91 87 83 77 69 63 63 69 75 79 82 82 74 67 64 59 54 52 50 48 44 40 37 36 35 31 25 18 14 13 13 13 12 12 12 11 11 10 10 10 10 10 10 9 8 8 7 6 5 5 5 5 5 5 5 5 5 5 5 6 6 6 6 6 6 6 6 5 5 5 5 6 5 5 5 5 4 5 4 4 4 4
92 91 90 88 85 78 71 65 63 67 75 85 88 82 75 68 62 57 54 51 48 44 40 37 36 35 32 29 24 19 15 14 14 14 13 12 12 11 11 10 10 10 11 11 10 9 8 8 7 6 6 5 5 5 4 5 5 5 5 5 5 5 5 5 5 5 5 6 5 5 5 5 5 5 4 5 4 4 4 4 4 4 4 4 4 4
88 86 82 76 69 64 62 66 74 81 82 80 74 67 60 56 52 47 44 42 40 37 36 36 36 32 26 20 16 15 15 15 14 13 12 12 12 11 11 11 11 10 10 9 8 7 7 6 6 6 6 5 5 5 4 5 5 5 5 5 4 5 4 4 4 4 4 5 5 5 5 4 4 4 4 4 4 4 4 4 4 4 4 4 4 4
78 72 66 62 61 66 75 81 82 78 70 62 57 53 50 47 43 40 37 36 36 38 39 38 33 25 19 15 15 14 14 13 12 12 12 11 11 11 11 10 9 9 8 7 7 6 5 5 5 5 5 5 5 5 5 5 5 4 5 4 4 4 4 3 3 3 3 4 4 4 4 4 3 4 3 3 4 3 4 4 4 4 4 4 4 4
60 58 63 71 77 80 81 77 69 63 58 54 51 48 45 43 41 39 39 40 40 39 34 27 21 16 14 14 13 13 12 11 11 10 10 10 10 10 9 9 8 8 7 6 6 5 5 5 5 5 5 5 5 5 5 4 4 4 4 4 3 3 3 3 3 3 3 4 3 3 3 3 3 3 3 3 4 4 3 4 4 4 4 4 4 4
66 74 80 83 81 74 67 63 60 59 56 52 49 47 45 44 44 44 45 42 37 29 22 17 15 14 13 13 12 11 11 10 9 10 10 10 9 8 8 8 7 6 6 5 5 5 5 5 5 5 5 5 5 4 4 3 3 3 3 3 3 3 4 3 3 4 4 3 3 3 3 3 3 3 4 3 3 3 3 4 4 4 4 4 3 3
83 83 78 72 67 64 62 61 59 56 52 48 46 45 46 48 49 46 40 31 23 18 16 14 14 12 11 11 10 10 10 9 9 9 9 8 8 7 7 7 6 6 6 6 5 5 5 5 5 5 5 4 4 4 3 3 3 3 3 3 3 3 4 3 3 4 4 3 4 3 3 4 4 3 4 3 3 3 3 3 3 3 4 3 3 3
75 71 67 66 64 61 58 55 52 50 48 46 47 48 49 48 42 33 25 19 16 15 15 13 13 11 10 11 10 9 9 9 8 8 8 7 7 7 6 6 6 6 6 5 5 5 5 5 5 4 4 4 3 3 3 3 3 3 3 3 3 3 3 3 3 3 3 3 3 3 3 3 3 3 3 3 3 3 3 3 3 4 3 3 3 3
68 66 64 61 57 52 49 47 46 47 49 50 51 48 41 33 25 19 16 15 15 14 13 12 12 11 10 10 10 9 9 8 8 7 7 7 6 6 5 6 5 5 5 5 5 5 4 4 4 4 4 3 3 3 4 3 3 3 3 3 3 3 3 3 3 3 3 3 3 3 3 3 3 3 3 3 3 3 3 3 3 3 3 3 3 3
63 59 54 50 47 45 43 42 43 46 48 46 41 33 25 19 17 16 15 15 13 13 13 12 12 12 11 10 9 8 8 7 7 7 7 6 6 5 5 5 5 5 5 5 5 5 5 4 4 3 3 3 3 3 3 3 3 3 3 3 3 3 3 3 3 3 3 3 3 3 3 3 3 3 3 3 3 3 3 3 3 3 4 3 3 3
52 49 46 43 42 41 42 44 45 43 39 32 24 19 17 16 16 15 14 14 13 13 13 12 12 12 11 10 9 8 7 7 7 7 6 6 5 5 5 5 5 5 5 5 5 5 5 4 4 3 3 3 3 3 3 3 3 3 4 4 3 3 3 3 3 4 4 3 3 3 3 3 3 3 3 3 3 3 3 3 3 3 4 4 4 4
Wind_Speed
43 45 46 47 49 51 53 55 57 58 57 56 55 55 55 54 52 52 52 53 55 53 53 56 58 57 58 60 62 62 61 61 61 63 64 65 66 67 68 69 71 73 74 75 76 76 77 78 80 81 82 83 83 84 83 83 82 80 79 76 73 70 68 66 64 64 65 66 67 67 68 68 69 69 70 70 70 71 71 71 72 72 73 74 75 76
46 48 49 51 52 54 55 57 57 56 55 55 56 56 55 54 52 52 52 54 56 54 55 57 58 58 58 60 62 62 61 62 63 63 65 65 66 67 69 71 73 74 75 76 77 77 78 79 81 81 82 83 83 82 81 80 78 77 74 71 68 66 65 66 67 68 69 70 70 71 71 72 72 72 73 74 74 74 75 76 76 76 77 78 78 80
49 50 52 53 54 55 56 56 55 54 55 57 58 56 55 53 53 52 53 55 56 56 56 58 60 60 58 60 64 64 62 64 64 64 66 66 67 68 70 73 74 75 76 77 78 79 80 81 81 82 82 81 80 79 77 75 73 71 69 67 67 67 68 70 71 72 72 73 74 75 75 76 76 76 76 77 77 77 78 79 79 80 81 82 82 83
51 52 53 54 55 55 54 54 54 55 56 57 58 56 53 52 52 53 53 54 57 58 58 60 61 61 59 60 64 64 64 65 65 65 66 67 68 69 71 73 74 76 77 77 79 80 81 81 82 81 80 78 76 74 72 70 68 67 68 68 70 71 72 73 75 76 76 76 77 78 79 79 79 80 79 79 80 80 81 82 82 83 84 85 87 87
52 53 53 54 54 53 53 55 56 56 56 57 57 55 52 51 53 55 55 55 57 58 59 62 62 61 60 61 63 64 65 66 65 66 67 68 69 70 72 73 74 75 76 77 79 80 80 80 79 78 75 73 70 68 67 67 67 68 70 72 74 75 76 77 78 79 80 80 80 80 81 82 82 83 83 83 83 84 85 86 86 86 87 89 90 92
52 52 52 52 52 53 55 57 57 57 57 55 53 54 53 53 54 56 57 58 58 60 60 62 61 59 61 64 64 65 65 65 65 66 67 68 69 70 71 72 73 75 76 78 79 79 78 77 75 71 68 66 65 66 66 68 70 72 74 76 77 78 79 80 81 82 82 83 83 83 83 84 85 86 87 87 87 88 89 90 91 91 92 93 94 96
51 51 51 52 54 56 56 57 58 59 56 52 51 54 54 55 56 57 59 59 60 62 61 60 60 58 60 64 65 65 65 64 64 66 67 68 69 70 71 72 73 75 76 77 77 76 74 70 68 66 64 64 66 67 69 71 73 75 77 78 79 80 81 82 83 84 85 86 86 86 87 88 89 90 91 91 92 93 94 94 95 96 96 97 98 100
50 51 52 54 56 57 57 58 60 59 54 52 52 54 55 57 58 59 60 61 62 61 58 58 61 60 60 63 65 65 65 65 66 66 67 69 70 71 72 72 73 74 74 74 72 69 67 65 65 66 66 67 69 70 72 74 75 77 78 80 81 82 83 84 85 87 88 89 90 90 91 92 94 95 96 96 96 97 98 99 99 100 101 101 102 103
52 53 55 57 57 57 58 59 59 57 54 53 54 55 57 58 59 60 61 62 61 58 56 57 60 60 60 63 65 65 65 65 67 67 68 70 71 71 71 72 72 71 69 66 64 63 63 65 67 69 70 71 72 73 74 76 77 78 79 81 83 84 85 87 89 90 92 93 94 95 96 97 99 100 101 101 102 102 102 103 104 105 105 105 105 106
55 57 57 58 58 58 59 59 58 56 55 56 57 58 59 59 60 61 61 60 58 56 55 57 59 58 59 64 67 65 65 66 67 68 69 70 70 70 69 67 65 63 61 60 61 63 65 67 69 71 72 74 74 75 76 77 78 80 81 83 86 88 89 91 92 94 95 97 99 100 102 102 103 105 105 106 106 107 107 107 108 108 108 109 109 109
57 58 58 58 59 59 59 59 59 58 58 59 60 60 60 60 60 59 58 58 58 55 54 55 58 59 60 65 68 67 67 69 69 68 69 68 66 64 62 60 59 58 59 61 63 65 67 68 70 72 73 74 76 77 78 79 81 83 85 87 89 91 93 94 96 98 100 102 103 105 106 107 108 109 109 109 110 110 110 110 111 111 111 111 111 111
57 58 58 59 60 60 60 60 60 60 61 62 62 61 60 59 58 55 55 57 57 56 55 55 58 60 62 65 67 67 67 69 70 69 66 63 59 58 57 57 59 60 62 63 65 66 68 70 72 73 75 76 78 79 81 82 84 87 89 91 93 95 97 98 100 102 104 106 107 109 110 111 111 112 112 112 112 112 112 112 112 112 112 112 112 111
58 59 60 61 62 62 61 60 61 61 62 63 62 61 59 57 56 53 53 55 56 56 56 56 58 60 63 65 65 66 67 67 66 63 59 57 56 57 59 60 61 62 64 65 67 69 71 73 75 77 78 79 81 82 84 87 89 91 93 95 97 98 100 102 104 106 108 109 111 112 112 112 113 113 113 113 113 113 113 113 112 112 112 112 111 110
60 62 64 64 63 63 62 61 62 62 62 62 61 60 58 57 55 52 53 55 56 57 55 55 58 60 62 64 63 64 64 61 58 56 55 57 59 61 62 63 64 65 67 69 70 72 74 76 78 79 81 82 84 86 88 91 93 95 96 98 100 102 104 106 108 110 111 112 113 113 113 113 113 113 113 112 112 112 112 111 111 111 110 110 109 108
61 63 64 63 62 62 63 63 63 61 59 59 59 58 57 58 57 54 53 54 56 56 54 53 56 59 60 59 57 58 57 54 53 55 57 60 62 63 65 66 68 69 71 72 74 76 78 79 81 83 84 86 88 90 92 94 96 98 99 101 103 105 107 109 111 113 114 114 114 114 114 113 112 112 112 111 111 110 110 110 109 108 108 107 106 104
59 59 60 61 61 62 62 62 62 59 57 56 56 57 57 58 58 57 55 55 54 51 48 47 49 53 56 53 51 53 53 53 55 58 60 63 64 66 68 69 71 73 74 76 77 80 82 84 86 87 88 90 92 94 96 98 100 102 104 105 107 109 111 113 115 115 115 115 114 114 113 112 111 111 110 110 109 108 107 107 106 105 104 103 102 100
55 55 57 59 61 61 60 59 58 57 55 54 54 55 56 56 57 55 51 48 47 43 38 38 40 47 53 51 50 53 54 55 58 61 63 66 67 69 71 73 75 76 77 79 81 83 85 88 90 92 93 95 97 99 100 102 104 106 108 110 112 114 116 117 117 117 116 115 113 112 111 110 110 109 108 107 106 105 104 104 104 103 102 101 99 98
53 52 54 57 58 58 57 56 55 56 55 53 53 54 54 51 49 46 41 38 38 37 36 37 39 46 54 55 53 54 56 58 61 64 66 68 70 72 74 76 78 79 81 82 84 86 89 91 93 95 98 100 101 103 104 106 108 110 112 114 116 118 119 119 119 117 116 114 112 110 109 108 107 106 105 104 104 103 103 102 102 101 100 99 98 97
52 50 50 54 57 55 54 54 53 53 54 53 53 52 48 43 39 37 37 37 38 38 39 41 42 47 55 60 59 58 59 62 64 66 70 72 74 75 77 79 81 83 85 86 88 91 93 95 97 100 102 103 105 106 108 110 112 114 116 118 120 121 122 121 119 116 114 112 110 109 108 106 105 104 103 102 102 102 101 100 100 99 99 98 97 96
50 49 48 51 55 54 53 53 52 51 52 53 50 45 40 38 37 37 38 41 42 41 42 44 45 50 57 61 62 62 64 66 67 70 73 75 77 79 80 82 84 86 88 90 92 94 96 99 101 103 105 107 108 110 112 114 116 117 120 122 123 123 122 120 117 115 112 110 109 107 106 105 104 103 102 101 101 100 100 99 98 98 97 97 96 95
49 49 48 49 52 52 51 51 51 50 48 45 42 39 38 38 40 41 42 45 47 47 48 48 47 54 61 63 64 66 67 68 71 74 77 78 80 82 84 85 87 89 91 93 95 97 99 102 104 107 109 110 112 114 116 117 119 121 123 124 124 122 119 116 113 111 109 108 106 105 105 104 103 102 101 100 100 99 99 98 97 96 96 95 94 93
48 48 49 49 50 50 50 50 49 47 42 38 37 38 39 41 43 44 44 47 50 53 56 55 52 57 65 67 68 70 71 72 74 78 79 81 84 86 87 89 91 93 95 97 99 101 104 106 108 110 112 114 116 117 119 121 123 124 125 125 123 119 115 112 109 108 106 105 103 103 103 103 102 101 100 99 98 98 97 96 95 94 93 92 91 90
48 47 47 48 48 49 50 47 43 40 37 37 39 40 42 45 47 48 48 49 51 55 60 60 59 62 66 68 72 75 75 75 78 81 83 84 87 90 92 94 96 98 100 102 104 106 108 110 112 115 116 118 119 121 123 125 126 127 126 125 121 116 113 110 107 105 103 102 101 101 101 101 101 100 99 98 97 96 95 93 91 91 91 90 89 88
47 47 47 46 47 49 48 42 37 36 38 40 41 43 45 48 50 53 54 55 55 58 62 64 65 68 69 70 75 78 78 78 80 83 86 88 91 94 97 99 100 102 104 107 109 111 113 115 117 119 121 122 123 125 127 129 129 129 126 123 118 114 110 108 105 103 102 101 101 100 100 100 100 99 99 98 97 95 92 89 88 89 90 89 87 85
47 47 47 45 46 45 42 38 36 38 41 43 44 46 49 51 54 56 59 60 60 61 66 68 69 73 76 77 79 80 81 82 84 86 89 91 95 98 101 103 104 106 108 110 113 115 117 119 121 123 125 126 127 129 130 131 130 127 123 119 115 110 107 104 103 102 101 101 101 100 100 100 99 99 98 97 96 95 92 89 87 89 90 90 87 84
47 48 47 44 41 38 36 35 37 39 42 45 47 50 52 55 58 61 63 64 64 65 68 71 72 75 80 83 84 85 86 87 88 90 93 96 99 102 105 106 108 110 112 114 116 118 120 122 124 126 128 129 130 131 131 129 126 122 118 114 110 107 104 102 102 101 100 100 100 99 99 99 98 97 96 95 95 95 93 90 89 89 91 91 88 83
46 47 45 40 37 35 35 36 38 41 44 47 49 52 55 58 61 65 67 69 70 69 71 75 76 76 81 86 88 89 90 91 92 94 97 100 102 106 108 109 111 113 116 118 120 122 124 126 127 129 131 132 132 131 129 125 121 117 113 110 107 105 103 102 101 100 99 99 98 97 97 96 96 96 95 94 94 94 93 92 89 88 89 90 87 82
43 43 40 37 37 38 38 39 42 44 47 49 52 55 58 61 65 68 71 73 74 75 75 79 81 82 84 87 90 92 93 94 95 98 100 103 106 108 111 112 114 117 119 121 124 126 128 129 131 133 133 133 131 128 124 120 116 113 109 106 105 103 102 101 99 98 98 97 97 96 95 94 94 94 94 94 94 93 93 91 89 86 87 88 85 81
38 37 37 37 40 41 42 43 46 48 50 52 55 59 61 65 68 71 75 77 79 80 81 83 86 88 89 91 93 95 97 98 99 102 104 107 110 112 114 116 118 121 123 126 128 130 132 134 135 135 134 131 128 123 119 114 111 108 106 104 103 102 101 100 98 97 97 96 96 95 94 92 92 92 92 93 93 92 91 89 86 84 84 85 83 79
33 35 37 39 43 45 46 47 49 51 54 56 59 62 65 68 71 75 78 81 83 84 86 87 89 92 93 94 95 97 100 102 104 106 108 111 114 117 118 120 122 125 128 130 132 134 136 137 137 135 131 127 122 117 113 109 107 105 104 103 102 101 100 100 98 97 96 95 95 94 93 91 90 90 90 91 91 90 88 85 83 81 81 81 79 76
32 36 38 40 45 49 50 51 53 55 57 60 63 66 69 72 75 78 82 85 87 88 89 91 93 94 96 97 98 101 104 107 109 110 112 115 118 121 123 125 127 129 131 133 135 137 138 137 135 131 126 121 117 113 111 108 106 105 104 103 102 100 99 99 98 97 96 95 94 93 92 91 90 89 89 89 89 87 84 82 80 79 78 77 74 71
35 37 40 43 46 50 53 55 57 58 60 64 68 70 73 76 78 81 85 89 91 91 92 94 96 96 97 99 100 103 107 111 114 115 117 119 122 125 127 129 131 133 134 136 137 137 136 133 129 125 120 117 114 111 110 109 107 105 104 103 102 101 100 99 97 96 95 95 93 91 90 89 89 88 87 87 86 84 82 79 77 76 75 73 71 68
38 40 43 45 48 52 55 58 60 62 64 67 71 74 77 80 82 84 88 92 96 96 96 97 99 99 100 102 103 105 108 112 117 120 122 124 126 128 130 132 135 136 137 138 137 134 130 126 122 118 115 113 110 108 107 106 105 103 102 102 101 99 98 98 97 95 94 94 92 90 88 88 87 86 86 85 84 81 79 77 75 73 72 71 69 67
41 44 46 48 50 53 57 61 64 67 69 71 74 78 80 83 85 88 91 94 97 98 99 101 102 103 105 107 109 110 112 114 119 123 127 129 131 133 134 135 137 138 138 136 132 128 123 119 115 112 110 108 106 105 104 103 102 100 99 98 97 96 95 95 95 94 93 91 90 88 86 85 84 84 84 83 81 79 77 75 73 71 70 68 67 66
45 47 49 52 54 56 60 64 67 69 73 76 79 81 84 86 88 90 93 96 98 99 101 104 106 108 110 112 114 116 116 118 121 126 131 133 135 137 138 139 139 136 133 129 124 120 116 113 110 108 106 105 104 103 101 100 99 97 96 96 95 93 92 92 91 91 90 89 87 86 84 83 82 82 81 80 79 77 75 72 70 70 69 67 66 65
48 51 53 55 58 61 64 67 71 72 75 79 83 85 87 91 93 94 94 97 99 101 103 105 108 110 113 115 118 120 121 122 125 129 135 138 139 141 141 139 135 130 124 119 116 114 112 109 107 106 105 103 101 100 99 97 97 96 95 95 94 92 90 89 88 87 86 85 84 83 82 82 81 80 78 77 76 76 74 72 70 69 68 67 65 65
52 55 57 59 62 65 68 71 75 77 78 82 86 89 91 94 96 96 95 96 99 102 106 108 110 113 116 119 121 124 126 127 128 132 137 141 142 141 138 133 127 122 117 113 111 110 109 108 106 104 103 101 100 100 99 98 97 96 95 94 93 91 89 87 86 84 83 82 82 81 80 80 79 78 76 74 73 73 73 72 70 69 68 66 65 64
56 59 61 64 67 70 72 75 78 80 82 86 90 92 94 96 98 99 99 100 103 106 110 112 114 117 120 123 126 129 131 132 131 133 136 138 136 133 128 123 120 118 116 113 110 107 107 107 106 104 103 102 101 100 100 98 97 95 94 93 91 90 88 87 85 83 82 80 79 79 78 78 77 75 74 73 71 71 70 70 70 69 68 67 65 63
60 63 66 69 71 74 77 80 82 84 86 90 93 94 95 98 100 101 103 105 108 112 116 118 120 123 126 128 130 133 134 134 131 128 127 126 123 121 119 118 116 115 115 113 111 108 106 106 105 105 104 102 100 99 98 97 95 93 92 90 89 88 87 85 84 83 81 79 78 77 77 76 75 73 71 70 70 70 70 69 68 68 68 67 65 63
64 66 70 73 76 78 81 84 87 89 91 93 96 96 97 100 104 106 108 110 112 116 120 123 126 128 129 131 133 134 135 133 128 121 118 117 116 117 117 116 114 113 112 111 109 107 105 104 104 104 102 100 98 96 94 93 91 90 89 88 86 85 84 82 81 81 79 78 77 76 76 75 73 72 70 69 69 69 69 68 67 67 67 66 64 62
67 70 74 77 80 82 85 88 90 92 93 95 98 99 100 103 107 110 113 115 117 119 122 125 129 131 131 132 132 132 131 128 124 121 118 118 117 116 115 114 112 110 110 108 107 106 104 103 103 102 100 97 95 92 90 89 88 87 86 85 83 82 81 80 79 78 78 78 77 76 75 74 73 70 69 68 68 68 68 67 67 66 66 65 63 61
71 74 77 80 83 86 88 90 92 93 94 97 100 103 105 107 110 113 116 119 123 125 126 128 130 132 132 131 131 129 127 125 123 122 120 118 116 115 113 111 110 108 107 106 106 105 104 102 101 100 98 96 94 91 88 86 85 85 84 83 81 80 79 78 77 76 76 77 76 76 75 74 72 70 68 68 68 66 66 66 65 65 64 63 61 60
74 77 80 83 86 87 89 91 93 94 97 99 102 105 108 111 114 116 119 122 125 128 130 132 134 134 133 131 128 126 124 122 120 118 116 115 114 113 111 110 108 106 105 104 104 103 101 100 98 97 96 95 92 90 87 85 83 83 83 82 81 79 78 76 75 74 75 75 75 75 74 73 72 70 68 67 66 65 65 64 63 63 62 61 59 58
78 80 82 84 86 88 89 92 95 98 101 104 107 109 112 115 119 122 124 127 129 132 134 135 135 134 131 128 125 122 120 118 115 113 112 111 110 109 108 107 106 104 103 102 101 99 97 96 95 94 94 93 91 88 86 85 83 82 82 81 80 78 77 75 74 73 73 72 72 72 72 71 71 69 68 66 65 63 63 62 61 60 60 59 57 56
80 81 83 85 88 90 92 95 98 102 106 109 113 116 119 122 125 128 131 133 134 135 135 133 130 127 125 123 121 119 116 114 111 110 109 108 107 106 105 104 104 103 101 100 98 97 96 95 94 92 91 90 89 87 85 83 81 79 78 78 77 75 74 73 72 71 71 70 69 69 68 68 68 67 66 64 63 61 61 59 58 58 58 56 55 54
81 83 85 87 90 94 96 99 102 107 111 114 118 121 124 127 129 132 133 134 134 133 131 128 125 123 121 118 116 113 112 110 109 107 107 105 104 104 103 102 102 101 100 99 97 96 94 93 92 90 87 86 85 84 82 81 78 76 74 73 72 70 69 68 68 68 68 67 66 65 65 66 66 65 64 62 61 59 58 56 56 56 56 54 53 52
82 85 88 91 94 98 101 104 107 111 115 118 121 124 127 129 131 132 132 131 129 127 125 124 122 120 117 115 112 110 110 109 107 105 104 103 102 102 101 100 99 99 98 97 95 93 91 89 88 86 84 83 82 82 81 79 77 75 72 70 69 67 66 65 64 63 63 63 63 62 62 62 62 62 61 60 58 56 55 53 53 53 54 52 50 48
86 89 92 95 99 102 105 108 111 115 119 122 124 126 127 128 129 129 127 125 123 122 121 120 119 117 115 113 112 110 108 107 105 104 103 103 102 101 100 98 97 96 95 93 93 92 90 87 85 84 84 83 82 81 80 79 77 74 71 69 67 65 63 63 62 60 59 59 59 59 59 59 59 59 58 57 55 53 52 51 50 51 51 50 47 45
90 93 97 100 103 106 109 112 114 117 120 123 124 125 125 125 123 122 121 120 119 118 117 117 117 116 115 113 111 109 106 105 104 103 103 102 101 99 98 96 95 94 92 91 90 90 89 88 86 85 84 83 82 80 78 77 75 73 70 68 66 64 62 61 60 59 58 56 56 56 56 56 56 55 54 53 52 51 50 48 47 48 49 48 45 43
95 98 101 104 107 110 113 115 117 118 120 121 122 121 121 119 118 117 117 117 116 116 115 114 114 115 114 112 110 107 105 104 104 103 102 102 100 98 96 94 92 91 91 90 89 88 88 88 87 85 83 82 80 78 76 75 74 72 71 69 67 65 64 62 60 59 58 56 55 54 54 54 54 53 51 50 49 49 48 47 45 45 46 46 44 42
100 103 106 109 111 114 116 118 119 119 119 118 118 117 116 116 115 115 115 115 115 114 114 113 112 111 110 110 108 107 105 104 103 102 101 101 99 97 96 94 92 90 88 88 87 87 87 87 86 85 82 80 78 77 76 74 73 71 70 69 68 66 64 62 60 59 59 58 56 54 53 52 51 51 49 48 48 47 46 45 43 42 42 43 43 41
Wind_Direction
258 261 263 266 269 272 275 278 280 283 285 287 289 291 292 292 290 289 290 290 290 292 293 295 297 296 290 288 288 289 290 290 289 289 289 290 290 291 292 292 292 292 293 294 294 294 294 294 294 294 295 296 298 299 300 301 302 301 301 301 301 302 301 301 300 300 299 299 299 298 297 297 296 296 295 294 293 293 292 290 289 288 287 286 285 284
262 265 267 270 272 274 277 281 283 285 286 288 290 291 292 291 289 289 290 290 291 292 294 295 297 295 290 289 289 289 290 290 290 291 291 291 292 292 292 292 292 293 294 294 294 295 294 294 294 295 297 298 300 301 302 302 301 300 300 301 302 301 301 300 299 299 298 298 298 297 297 296 295 295 294 293 293 292 291 290 289 288 287 286 285 285
266 268 270 272 275 278 281 283 284 286 288 289 291 291 291 290 289 289 289 290 292 293 294 296 297 295 291 290 290 291 292 291 291 292 291 292 292 292 292 292 293 294 294 294 294 295 294 295 296 297 299 300 301 302 301 300 300 300 301 301 301 300 299 299 298 298 298 298 297 297 296 295 295 294 293 293 292 291 291 290 289 288 287 286 285 285
270 271 273 275 278 281 282 283 285 287 288 290 291 290 289 289 288 288 289 290 292 294 295 296 296 293 290 290 290 291 292 291 292 292 292 292 292 292 293 293 293 293 294 294 294 294 295 296 297 299 301 302 302 301 300 300 300 300 300 300 300 299 299 298 298 298 298 298 297 297 296 296 295 294 293 292 291 291 290 289 288 287 287 286 286 285
273 274 276 278 280 281 282 284 286 287 289 291 291 290 289 288 288 289 290 291 292 294 295 296 295 293 291 290 290 291 291 290 291 291 291 291 292 292 292 292 292 293 293 294 294 295 296 298 300 302 302 302 301 300 300 301 301 301 300 300 300 299 299 299 299 299 298 298 297 297 296 296 295 294 293 292 292 291 290 289 288 287 287 286 286 285
275 277 278 279 280 281 283 285 286 288 290 291 290 290 290 289 288 289 290 291 292 293 295 294 293 291 291 291 290 290 290 290 290 290 290 291 291 291 291 291 292 293 294 294 295 297 299 301 302 302 301 300 301 301 301 301 300 300 300 300 300 300 300 300 299 299 299 298 298 298 297 296 296 295 294 293 293 292 291 290 289 289 288 287 286 286
276 277 278 279 281 283 284 286 288 290 291 291 289 290 290 290 289 290 291 292 293 294 294 293 291 290 290 290 290 290 290 290 291 290 291 291 291 291 291 292 294 294 295 296 298 300 301 302 301 300 300 301 301 300 300 300 299 299 299 300 300 300 300 300 300 300 300 299 299 299 298 298 297 296 295 294 294 293 292 291 290 289 288 288 287 286
275 276 277 280 282 283 285 288 290 292 291 290 290 290 290 290 290 291 291 292 293 294 294 293 292 292 291 291 291 291 291 292 291 291 291 291 291 292 293 295 296 297 297 299 300 302 302 301 300 301 301 300 300 299 299 299 299 300 300 300 300 300 300 301 301 301 301 301 301 300 300 299 298 298 297 296 295 294 293 292 291 289 288 287 286 286
275 277 279 281 282 284 287 290 292 292 291 291 291 291 290 290 290 291 292 293 293 293 293 292 292 292 293 291 290 290 292 292 292 292 292 291 293 295 296 298 298 298 299 301 302 301 300 300 300 301 300 300 300 300 300 300 300 300 300 301 301 302 302 302 302 302 302 302 302 302 301 300 300 299 298 297 296 294 293 292 290 289 287 286 285 284
277 279 281 282 283 286 289 291 292 292 291 292 292 291 290 290 290 291 292 293 293 293 293 293 292 292 293 292 290 290 291 291 291 291 291 293 296 298 299 298 298 299 300 301 300 299 299 300 300 300 300 301 300 300 300 300 301 301 302 302 302 303 303 303 303 303 303 303 303 303 302 301 301 299 298 297 296 294 293 291 289 288 287 286 285 284
279 280 281 282 285 289 291 292 292 291 291 292 291 291 290 290 291 292 294 294 293 293 293 293 293 293 293 292 292 293 293 292 292 292 294 297 299 299 298 297 298 299 300 299 299 299 299 299 299 299 299 299 299 300 300 301 302 302 303 303 304 304 304 304 304 304 304 304 304 303 303 302 301 299 298 297 295 293 292 290 289 288 287 287 286 285
280 281 283 286 288 290 291 291 291 291 291 291 291 290 290 291 291 293 293 293 294 294 293 293 293 293 292 291 291 293 293 293 294 296 299 301 300 298 298 298 299 300 299 299 299 299 299 299 299 299 299 300 300 301 302 302 303 303 304 304 305 305 305 305 305 305 305 305 304 304 303 302 300 299 297 296 294 293 292 291 290 289 288 288 287 286
282 284 286 288 290 290 290 290 290 290 291 291 291 291 291 292 292 293 293 292 292 292 293 294 294 292 291 290 291 292 292 293 296 300 302 301 299 299 299 300 300 300 300 300 300 300 300 300 301 301 302 302 303 303 303 304 304 305 305 305 305 305 305 305 306 306 305 305 304 303 302 301 299 298 296 295 294 293 292 291 291 290 290 289 288 288
284 286 288 289 290 290 289 289 289 290 290 291 291 292 293 293 293 294 293 293 294 294 295 296 294 292 290 290 291 292 293 296 300 302 301 300 300 300 301 301 301 301 301 301 301 302 302 303 303 303 304 304 304 304 304 304 305 305 305 305 305 306 306 306 306 306 306 305 304 303 301 299 298 296 295 294 294 293 292 292 292 291 291 291 290 289
285 286 288 288 288 288 288 289 289 290 290 291 292 293 294 294 295 296 296 296 296 296 298 297 294 292 290 291 292 293 296 300 302 301 300 300 301 301 301 302 302 301 302 302 303 304 304 304 304 304 304 304 304 304 305 305 305 305 306 306 306 307 307 307 307 306 306 305 304 302 300 298 297 296 295 295 294 294 294 293 293 292 292 291 291 290
284 285 286 286 286 286 287 288 289 290 291 292 293 294 295 295 297 298 299 299 298 298 298 297 295 292 291 294 296 297 300 303 302 301 301 301 301 301 302 302 301 302 303 304 305 305 305 305 304 304 304 305 305 305 306 306 306 307 307 307 307 308 308 307 307 307 306 304 303 301 300 298 298 297 296 296 295 295 294 294 293 293 293 292 292 291
283 284 284 285 285 286 287 288 289 290 291 293 293 293 294 296 298 300 301 301 300 301 302 300 298 294 294 296 298 299 303 303 302 302 302 301 301 302 302 302 302 303 304 305 305 305 305 305 305 305 306 306 306 307 307 307 307 307 308 308 308 308 308 308 308 307 305 304 302 301 300 299 298 297 297 296 296 296 295 295 295 295 294 294 293 293
283 284 284 285 285 286 287 288 289 291 292 293 294 295 297 299 301 302 304 303 303 305 306 304 302 299 297 298 299 302 304 303 302 303 302 301 301 302 302 302 303 304 305 305 306 305 305 305 306 306 306 307 307 307 307 307 307 308 308 308 309 309 309 308 308 306 305 303 302 301 300 299 298 297 297 297 297 297 296 296 296 295 295 295 295 294
285 285 285 285 285 286 288 289 290 292 293 295 296 298 300 301 302 303 304 303 303 306 305 304 304 301 299 299 302 305 304 304 304 304 302 302 302 303 303 303 304 305 306 306 306 306 306 306 306 306 307 307 307 307 308 308 309 309 309 309 309 309 309 309 308 306 304 303 302 301 300 300 299 298 298 298 297 297 297 296 296 296 296 295 295 295
285 285 284 285 286 287 288 290 292 293 295 297 299 300 301 302 303 303 303 303 303 304 303 303 305 302 298 299 303 305 304 304 305 303 302 303 304 304 304 304 305 305 306 306 306 306 306 306 306 306 307 307 308 308 309 309 310 310 310 310 310 310 309 308 307 305 304 303 302 302 301 300 300 299 299 298 298 297 297 297 297 297 296 296 295 295
285 286 286 285 286 288 290 291 293 295 296 297 297 299 300 301 302 303 304 304 304 305 303 303 305 302 299 301 303 303 303 304 304 303 303 304 304 304 304 305 305 305 305 305 305 306 306 306 306 307 307 308 309 310 310 310 310 311 311 310 310 309 308 307 306 305 304 303 302 302 301 300 299 299 298 298 298 298 298 298 297 297 296 296 295 295
287 287 288 288 289 290 291 292 294 296 296 295 295 297 300 301 301 302 303 303 304 305 303 305 307 303 302 304 304 303 304 305 304 303 304 305 304 304 305 305 305 305 305 305 306 306 306 307 307 308 309 309 310 310 310 310 311 311 311 310 309 308 307 306 305 304 303 302 302 301 300 300 299 299 299 299 298 298 297 297 297 297 296 296 295 295
289 289 289 290 291 290 291 294 295 294 294 294 296 299 300 300 300 301 301 301 303 304 303 305 307 304 303 305 304 304 305 306 305 304 305 305 305 305 305 305 306 306 306 306 307 307 308 308 309 309 310 310 310 311 311 311 311 311 311 310 309 308 307 306 305 304 303 302 301 301 300 300 300 299 299 298 298 297 297 297 296 296 296 295 295 295
291 291 290 291 291 291 293 295 295 293 294 295 297 299 300 300 301 302 302 303 304 304 304 305 306 304 304 304 303 304 305 305 304 304 305 305 305 305 305 306 307 307 307 307 308 308 309 309 309 310 310 310 311 311 311 311 311 311 310 309 308 307 306 305 304 304 303 302 301 301 301 300 300 299 299 298 298 297 297 297 298 298 297 296 296 296
292 291 290 291 291 291 292 294 295 295 297 298 300 300 301 301 301 302 302 303 305 305 305 306 306 306 306 305 304 305 306 305 305 305 306 306 306 306 306 307 307 307 308 308 308 309 309 309 309 310 310 310 311 311 311 311 311 310 309 308 307 306 305 305 304 303 303 302 302 301 301 301 300 300 299 299 299 299 299 300 300 300 299 298 297 297
292 291 291 292 290 289 289 291 293 295 296 298 299 300 301 301 301 302 302 303 304 305 305 305 305 306 306 306 306 307 307 307 307 307 307 307 307 306 306 307 307 308 308 308 308 308 308 309 309 309 310 310 311 311 311 310 310 309 308 307 306 305 305 304 303 303 302 302 302 301 301 301 300 300 300 300 300 300 301 302 302 301 299 298 297 297
291 291 292 292 289 288 289 290 291 293 294 296 297 298 300 301 302 302 303 303 304 305 304 304 305 306 306 306 307 307 307 307 308 308 307 306 306 305 306 307 308 308 308 308 308 308 308 309 310 310 311 311 311 311 310 310 309 308 307 306 305 305 304 303 303 302 302 302 301 301 300 300 300 300 300 300 301 301 301 302 302 300 298 297 297 298
291 290 290 290 289 289 291 291 292 293 294 296 297 299 300 301 302 303 303 303 303 304 305 305 306 307 307 307 307 307 307 307 307 307 306 306 305 305 306 307 307 307 307 307 308 309 310 310 311 311 311 311 311 310 309 308 308 306 306 305 304 304 303 303 302 302 302 302 301 301 301 301 301 301 301 301 301 300 300 300 300 299 297 296 297 297
289 288 289 290 290 290 291 292 293 294 295 297 299 300 301 302 302 303 303 303 304 305 307 307 308 308 308 307 307 307 307 307 307 306 306 306 306 306 306 307 307 307 308 308 309 310 310 311 311 311 310 310 309 309 308 307 306 305 305 304 304 303 303 303 303 303 302 302 302 301 301 300 300 300 300 299 299 299 299 299 299 297 295 295 296 296
287 287 289 291 292 293 293 294 295 296 298 299 300 301 302 302 303 303 304 304 305 306 307 308 308 307 307 307 307 307 307 307 307 307 307 306 306 306 306 307 307 308 309 309 310 310 310 310 310 310 309 309 308 308 307 306 305 305 304 304 304 304 304 304 303 303 303 302 301 300 300 300 299 299 298 297 297 297 297 298 297 296 294 294 295 295
286 288 290 292 293 295 295 296 297 299 301 301 302 302 302 303 303 304 304 305 305 307 307 308 308 307 307 307 308 307 307 307 307 307 306 306 306 306 307 308 308 309 309 309 310 310 310 310 309 309 309 308 308 308 307 306 306 305 305 304 304 304 304 303 303 303 302 301 300 300 299 299 299 298 297 297 296 296 297 297 297 295 294 294 294 294
288 289 290 292 294 295 297 298 299 300 302 302 303 303 303 303 304 304 305 305 306 307 307 307 307 306 307 307 307 307 306 307 307 306 306 306 306 307 307 308 308 309 309 310 310 310 309 309 309 309 309 308 308 307 306 306 305 305 305 305 304 304 304 303 302 302 301 300 299 299 299 299 298 297 297 296 296 297 297 297 296 294 294 294 294 293
289 290 292 293 295 296 298 299 300 301 302 302 303 303 303 304 304 305 306 306 307 307 307 307 306 306 306 306 306 306 306 307 306 306 306 306 306 307 308 308 309 309 310 310 310 310 309 309 309 308 307 307 306 305 305 305 304 304 304 304 303 303 302 302 301 300 299 299 299 299 298 298 297 297 296 295 296 297 297 296 295 294 293 293 293 293
291 292 293 294 295 296 297 299 300 302 303 303 302 303 303 304 305 306 306 306 306 307 307 306 306 307 307 307 307 306 306 306 306 306 306 306 307 308 308 309 310 310 310 310 309 309 308 308 307 306 306 305 305 305 304 304 304 303 303 302 301 301 300 300 299 299 298 298 298 298 298 297 296 295 295 295 296 296 296 295 294 293 293 293 293 293
292 293 294 295 296 297 298 300 301 302 303 303 303 303 304 305 305 305 306 306 306 306 306 306 307 307 307 306 306 305 305 306 306 306 306 307 308 309 309 310 310 310 309 309 308 308 307 307 306 306 306 306 305 305 304 303 303 302 302 301 300 300 299 298 298 298 298 298 298 297 297 296 295 294 295 295 296 295 295 294 293 292 292 293 293 293
293 294 295 297 298 299 300 300 301 302 303 303 303 304 305 305 305 305 306 306 306 306 306 305 305 305 304 304 304 305 305 306 307 307 307 308 309 309 309 309 309 309 308 308 307 307 307 307 307 307 306 306 305 305 304 304 303 303 302 301 301 300 299 298 298 298 297 297 297 297 296 295 295 295 295 295 295 295 294 293 292 292 292 293 293 292
296 297 298 299 300 300 301 301 302 303 304 304 304 305 305 305 305 305 305 305 305 304 303 303 303 303 303 304 304 305 306 307 308 308 308 308 308 308 308 309 309 309 308 308 308 308 308 308 308 308 307 307 306 306 305 305 304 304 303 302 302 301 300 299 299 298 298 297 297 296 296 295 295 295 295 294 294 294 293 293 293 293 293 293 292 292
298 299 300 300 301 301 302 303 303 304 305 304 304 305 305 305 304 305 305 305 304 303 303 303 303 304 304 305 306 307 307 308 309 308 308 307 307 308 308 309 309 309 310 310 310 310 309 309 309 309 308 307 307 306 306 305 305 304 304 303 302 301 301 300 300 299 298 298 297 297 296 295 295 295 294 294 293 293 292 292 292 293 293 293 292 292
300 300 301 302 303 303 304 304 304 305 305 304 304 305 305 305 305 305 305 305 305 304 304 305 305 306 306 307 307 307 307 308 309 309 308 308 309 309 310 310 311 311 311 311 310 310 310 310 309 308 308 307 307 306 305 305 305 304 303 303 302 302 301 301 301 300 300 299 298 297 295 295 295 294 294 293 293 292 292 292 292 292 292 292 292 291
301 302 303 304 304 305 305 305 305 306 306 305 305 305 306 305 305 305 305 305 305 305 306 306 306 306 307 307 307 307 308 309 310 311 311 312 312 312 312 312 312 311 311 311 310 310 310 309 308 307 307 306 306 306 305 305 305 304 303 303 302 302 302 302 301 301 300 299 298 296 295 295 295 294 294 293 292 292 292 292 292 291 291 291 291 290
303 304 304 305 305 305 306 306 306 306 306 306 306 306 306 305 305 305 306 305 305 305 305 305 305 306 307 308 309 310 311 312 314 315 315 315 314 313 313 312 312 311 311 311 310 310 310 309 308 308 307 307 307 306 306 306 305 305 304 303 303 303 303 302 302 301 300 299 298 297 296 295 295 295 294 293 292 292 292 292 292 291 291 291 290 289
304 304 305 305 305 305 306 306 306 306 306 306 305 305 305 305 305 305 305 305 305 305 305 306 306 308 309 311 312 313 314 315 315 315 315 315 314 313 312 312 312 311 311 311 311 311 311 310 310 309 309 308 308 308 307 307 306 305 305 304 304 303 303 302 302 301 299 298 297 296 296 296 296 295 294 293 292 292 292 291 290 289 289 289 289 288
304 305 305 305 305 305 305 305 305 305 305 304 304 304 304 304 304 304 304 305 305 306 307 308 310 311 312 313 314 314 314 315 314 314 314 314 313 313 312 312 312 312 312 311 311 311 311 311 310 310 309 309 308 308 308 308 307 307 306 305 304 304 303 302 301 300 298 297 297 296 296 296 296 295 294 293 292 292 290 289 289 289 288 288 287 286
305 305 305 305 305 305 305 305 305 305 305 304 304 304 304 305 305 306 307 308 308 309 310 311 312 313 313 314 314 314 314 314 314 314 313 313 313 312 312 312 312 312 312 312 311 311 311 311 310 310 310 309 309 309 309 308 308 307 306 305 304 304 303 303 301 299 298 296 296 296 296 295 294 294 293 292 292 291 290 289 289 288 287 287 286 285
305 306 306 305 306 306 305 305 305 305 305 305 306 306 307 308 308 309 310 310 311 311 312 312 312 313 313 314 314 314 314 314 314 314 314 314 313 313 313 313 313 313 313 313 312 312 312 312 311 311 310 310 309 309 308 307 307 306 305 305 304 304 303 302 301 299 298 297 296 296 295 294 293 293 293 292 291 290 290 289 289 288 287 286 285 284
306 306 306 306 306 306 306 306 306 307 307 308 308 309 310 310 310 310 310 311 311 311 312 312 313 313 313 314 314 315 315 315 316 315 315 314 314 314 314 314 314 314 314 314 313 313 312 312 311 311 310 310 309 309 309 308 308 308 307 306 305 304 303 302 301 300 299 298 297 296 295 294 293 293 292 292 291 291 290 289 288 287 286 285 285 284
307 306 306 306 306 307 307 308 308 309 309 309 310 310 310 310 310 310 310 310 311 311 312 312 313 314 314 315 316 316 317 316 316 316 315 315 315 315 315 315 315 315 314 314 313 312 312 311 311 310 310 311 311 311 311 311 311 310 309 308 307 306 305 303 302 300 299 298 297 296 295 294 293 293 292 292 292 291 290 288 287 286 286 285 285 284
307 307 307 308 308 308 309 309 309 310 310 310 310 310 310 309 309 309 310 311 312 312 313 313 314 315 316 317 317 317 317 317 317 317 316 316 316 316 316 316 315 315 314 314 313 313 313 312 312 313 313 314 314 314 314 313 312 311 310 309 308 307 306 305 303 302 300 299 298 296 295 294 293 293 292 292 292 291 290 289 287 287 286 286 286 285
308 308 308 309 309 309 309 310 310 310 310 309 309 309 309 309 309 310 311 312 312 313 314 315 316 317 317 318 317 318 318 318 318 318 318 317 317 317 316 316 316 315 315 315 315 315 315 315 315 315 316 316 316 315 314 313 312 311 311 310 309 308 307 306 305 305 304 302 300 298 297 296 295 295 294 294 293 292 290 289 289 288 288 288 287 286
309 309 309 309 310 310 310 310 310 309 309 309 309 309 310 310 311 312 312 313 314 315 316 317 317 317 317 318 318 318 319 319 319 318 318 318 317 317 317 317 317 316 317 317 317 317 316 316 316 316 316 316 316 316 315 314 313 313 313 312 311 310 309 309 309 308 307 305 303 301 300 299 298 297 297 295 294 293 291 291 290 289 289 289 288 287
310 310 310 310 310 310 310 310 310 310 310 311 311 311 312 312 313 313 314 315 316 317 317 317 317 317 318 318 319 319 319 319 319 319 319 318 318 319 319 318 318 318 318 318 318 317 317 317 316 316 317 318 318 317 316 315 315 315 314 312 311 311 310 310 311 310 309 307 306 304 302 301 300 299 298 297 295 294 293 293 292 290 288 288 288 286